Location: Chassagnes
(44.4047°N, 4.1657°E)
Time: 12:58:31
(UTC+00:00)

DEBRIS - Pass Details

Date: 27 October 2020
Orbit: 307 x 15221 km, 49.4° (Epoch: 23 November)

Event Time Altitude Azimuth Distance (km) Brightness Sun altitude
Rises 19:04:25 0° 250° (WSW) 10,815 10.3 -26.5°
Reaches altitude 10° 19:15:25 10° 254° (WSW) 7,226 9.2 -28.4°
Maximum altitude 19:31:22 70° 338° (NNW) 1,198 4.4 -31.2°
Enters shadow 19:31:50 68° 8° (N) 1,148 4.2 -31.3°
